Terminal Aerodrome Forecast
Issued by NWS

Home | Current Version | Previous Version | Text Only | Print | Product List | Glossary On
Versions: 1 2 3 4 5 6 7 8 9 10 11 12 13 14 15 16 17 18 19 20 21 22 23 24
568
FTUS41 KOKX 222322
TAFSWF
TAF
KSWF 222322Z 2300/2406 VRB03KT P6SM BKN250
     FM230400 VRB02KT P6SM FEW008 FEW040 BKN250
     FM230900 VRB02KT 4SM BR SCT008 SCT040 BKN250
     FM231300 14004KT P6SM SCT008 BKN035
     FM231900 15009KT P6SM SCT008 BKN030
     FM240000 16012KT 6SM BR VCSH SCT008 BKN025
      AMD NOT SKED=

USA.gov is the U.S. government's official web portal to all federal, state and local government web resources and services.